Showing default

GARAI-B, 68463

Orbit data source: Space-Track

GARAI-B, 68463 is a payload satellite owned by Satlantis (SE) in SSO that was launched on Mon, 30 Mar 2026 UTC via an FALCON 9 launch vehicle from the Air Force Western Test Range (AFWTR). Payload-class satellites include a variety of spacecraft equipped with specific instruments for various scientific and technological missions. These include communications satellites like Starlink; space stations such as the ISS; scientific satellites like the Hubble; Earth observation satellites from companies like Planet Labs, Umbra, and HawkEye 360; GPS; miniature CubeSats for education and research; and military/defense satellites.

Loading next visibility...
Identifier
68463, 2026-067AZ
Orbit
SSO
Country
Flag of SESE / SWED
Related business
Manufacturer
OHB-SE
Mission
Operational Commercial Imaging
Bus & Motor
INNOSAT, Unknown motor
Mass
115 kg wet, 115 kg dry
Launch date (UTC)
2026-03-30 (5 months ago)
Launch vehicle
FALCON 9
Launch site
Air Force Western Test Range (AFWTR)
Object type
Payload
Rocket body
Debris
Shape & HBR
Box, 3.3 m
Radar Cross Section
1.305 m², Large (>1 m²)

Expand to show TLE details & history
Last TLE update: 15 hours ago

TLE from 15 hours ago
0 GARAI-B
1 68463U 26067AZ  26228.43020970  .00004254  00000-0  22221-3 0  9990
2 68463  97.4581 185.9102 0002274 187.3615 172.7585 15.16430070 21077
Epoch: 2026-08-16T10:19Z
TLE epoch observation values (Epoch: 2026-08-16T10:19:30.118Z)
Latitude
-0°
Longitude
66.20786°
Altitude
521.28 km
Speed
7.602 km/s
True Right ascension
12h 23m 38s
True Declination
0° 00' 00"
Sunlit
Object was in daylight at epoch
Visualization orbit readout
Latitude
Unknown
Longitude
Unknown
Altitude
Unknown
Speed
Unknown
Apparent Right ascension
Unknown
Apparent Declination
Unknown
Sunlit
N/A
Visualization observer readout
Local Sidereal Time
16:02:34
Azimuth
Unknown
Elevation
Unknown
Doppler factor
Unknown
Orbital elements
Apogee altitude
515.18 km
Perigee altitude
512.046 km
Semi-major axis
6,891.75 km
Eccentricity
0.00023
Inclination
97.4581°
RAAN
185.9102°
Arg. of periapsis
187.3615°
True anomaly
172.76178°
Mean anomaly
172.7585°
Eccentric anomaly
172.76014°
Mean motion
3.79358 °/min
Orbital period
94.9 mins
BSTAR
0.00022221
Loading maneuver chart data...
Computing Atmospheric mass density...
Loading historical data...
Loading historical data...
Loading historical data...
Loading historical data...
Loading historical data...
Loading historical data...
Loading historical data...

Documentation

Showing up to 5 results
|